User: anonymous   Login
Location: Unspecified
(0.0000°N, 0.0000°E)
Time: 23:46:35
(UTC+00:00)
Language:

STSS DEMO 2 (USA 209) - Orbit

View from above orbital plane
View from above orbital plane
View from above satellite
View from above satellite

Ground track
Ground track

The orbit data is extracted from the following two-line orbital elements,

1 35938U 09052B   18259.76565437 0.00000000  00000-0  00000-0 0    05
2 35938  57.9923 229.3240 0017000  55.2651 304.7349 12.79305316    06
Epoch (UTC): 16 September 2018 18:22:32
Eccentricity: 0.0017000
inclination: 57.9923°
perigee height: 1331 km
apogee height: 1357 km
right ascension of ascending node: 229.3240°
argument of perigee: 55.2651°
revolutions per day: 12.79305316
mean anomaly at epoch: 304.7349°
orbit number at epoch: 0

The dashed part of the orbit path shows where the satellite is in the earth's shadow,  

DLR